FENGYUN 1C DEB, 30679

Orbit data source: Space-Track

FENGYUN 1C DEB, 30679 is space debris in SSO originally from a launch on Mon, 10 May 1999 UTC launched from the Taiyaun Space Center, China (TSC). Fengyun 1C debris stems from the Chinese weather satellite Fengyun-1C, which was intentionally destroyed by a Chinese anti-satellite missile in 2007. This event dramatically increased the amount of space debris, with thousands of trackable fragments posing hazards to satellites and human spaceflight. The Fengyun 1C debris cloud has become a focal point in discussions about space sustainability and the need for international regulations to prevent the creation of new debris.

Loading next visibility...
Identifier
30679, 1999-025AQM
Orbit
SSO
Country
Flag of CNCN / PRC
Related business
Manufacturer
Unknown
Mission
Spacecraft
Bus & Motor
Unknown
Mass
Unknown
Launch date (UTC)
1999-05-10 (27 years ago)
Launch vehicle
Unknown
Launch site
Taiyaun Space Center, China (TSC)
Object type
Payload
Rocket body
Debris
Shape & HBR
Unknown shape, 0.1 m
Radar Cross Section
Small (<0.1 m²)

Expand to show TLE details & history
Last TLE update: 6 days ago

TLE from 6 days ago
0 FENGYUN 1C DEB
1 30679U 99025AQM 26139.11524124  .00000249  00000-0  25324-3 0  9995
2 30679  99.3599 194.3698 0170870  23.4168   5.7762 13.79940745966904
Epoch: 2026-05-19T02:45Z
TLE epoch observation values (Epoch: 2026-05-19T02:45:56.843Z)
Latitude
29.01395°
Longitude
-89.12819°
Altitude
842.806 km
Speed
7.497 km/s
True Right ascension
12h 36m 36s
True Declination
28° 52' 12"
Sunlit
Object was in daylight at epoch
Visualization orbit readout
Latitude
Unknown
Longitude
Unknown
Altitude
Unknown
Speed
Unknown
Apparent Right ascension
Unknown
Apparent Declination
Unknown
Sunlit
N/A
Visualization observer readout
Local Sidereal Time
10:44:14
Azimuth
Unknown
Elevation
Unknown
Doppler factor
Unknown
Orbital elements
Apogee altitude
1,086.749 km
Perigee altitude
835.93 km
Semi-major axis
7,339.477 km
Eccentricity
0.01709
Inclination
99.3599°
RAAN
194.3698°
Arg. of periapsis
23.4168°
True anomaly
5.97754°
Mean anomaly
5.7762°
Eccentric anomaly
5.87643°
Mean motion
3.4518 °/min
Orbital period
104.29 mins
BSTAR
0.00025324
Loading maneuver chart data...
Computing Atmospheric mass density...

Documentation

Showing up to 5 results
|